Hourly Weather Mochudi

Today, 27 September, Sunday

Time Temperature Precipitation Wind Pressure Humidity
00:00 +17°C° 0 mm 2 mps 676 mmHg 14%
01:00 +16°C° 0 mm 2 mps 676 mmHg 15%
02:00 +15°C° 0 mm 2 mps 676 mmHg 15%
03:00 +14°C° 0 mm 2 mps 675 mmHg 15%
04:00 +14°C° 0 mm 2 mps 675 mmHg 16%
05:00 +13°C° 0 mm 2 mps 675 mmHg 16%
06:00 +15°C° 0 mm 2 mps 676 mmHg 15%
07:00 +18°C° 0 mm 2 mps 677 mmHg 13%
08:00 +20°C° 0 mm 2 mps 678 mmHg 11%
09:00 +25°C° 0 mm 2 mps 678 mmHg 9%
10:00 +28°C° 0 mm 1 mps 679 mmHg 7%
11:00 +32°C° 0 mm 1 mps 679 mmHg 5%
12:00 +33°C° 0 mm 1 mps 678 mmHg 5%
13:00 +35°C° 0 mm 2 mps 678 mmHg 4%
14:00 +35°C° 0 mm 3 mps 677 mmHg 4%
15:00 +35°C° 0 mm 4 mps 677 mmHg 5%
16:00 +35°C° 0 mm 5 mps 677 mmHg 5%
17:00 +35°C° 0 mm 6 mps 677 mmHg 5%
18:00 +32°C° 0 mm 6 mps 677 mmHg 5%
19:00 +28°C° 0 mm 5 mps 677 mmHg 6%
20:00 +23°C° 0 mm 4 mps 676 mmHg 6%
21:00 +22°C° 0 mm 4 mps 677 mmHg 7%
22:00 +20°C° 0 mm 3 mps 677 mmHg 8%
23:00 +19°C° 0 mm 3 mps 677 mmHg 9%

Tomorrow, 28 September, Monday

Time Temperature Precipitation Wind Pressure Humidity
00:00 +17°C° 0 mm 2 mps 677 mmHg 10%
01:00 +16°C° 0 mm 2 mps 677 mmHg 11%
02:00 +15°C° 0 mm 1 mps 677 mmHg 12%
03:00 +15°C° 0 mm 1 mps 677 mmHg 13%
04:00 +14°C° 0 mm 1 mps 677 mmHg 13%
05:00 +14°C° 0 mm 1 mps 677 mmHg 14%
06:00 +16°C° 0 mm 1 mps 678 mmHg 14%
07:00 +19°C° 0 mm 1 mps 679 mmHg 14%
08:00 +21°C° 0 mm 1 mps 680 mmHg 15%
09:00 +24°C° 0 mm 2 mps 681 mmHg 17%
10:00 +27°C° 0 mm 2 mps 681 mmHg 20%
11:00 +30°C° 0 mm 2 mps 682 mmHg 23%
12:00 +31°C° 0 mm 2 mps 681 mmHg 20%
13:00 +34°C° 0 mm 2 mps 680 mmHg 17%
14:00 +35°C° 0 mm 1 mps 680 mmHg 14%
15:00 +35°C° 0 mm 2 mps 679 mmHg 13%
16:00 +35°C° 0 mm 2 mps 679 mmHg 12%
17:00 +35°C° 0 mm 2 mps 678 mmHg 11%
18:00 +31°C° 0 mm 2 mps 679 mmHg 11%
19:00 +28°C° 0 mm 3 mps 679 mmHg 11%
20:00 +25°C° 0 mm 3 mps 679 mmHg 11%
21:00 +22°C° 0 mm 3 mps 679 mmHg 11%
22:00 +21°C° 0 mm 2 mps 679 mmHg 10%
23:00 +19°C° 0 mm 2 mps 680 mmHg 10%

Day after tomorrow, 29 September, Tuesday

Time Temperature Precipitation Wind Pressure Humidity
00:00 +18°C° 0 mm 2 mps 679 mmHg 10%
01:00 +17°C° 0 mm 2 mps 679 mmHg 10%
02:00 +16°C° 0 mm 2 mps 679 mmHg 10%
03:00 +15°C° 0 mm 1 mps 679 mmHg 10%
04:00 +14°C° 0 mm 1 mps 679 mmHg 11%
05:00 +13°C° 0 mm 1 mps 679 mmHg 12%
06:00 +16°C° 0 mm 1 mps 680 mmHg 15%
07:00 +19°C° 0 mm 1 mps 680 mmHg 19%
08:00 +21°C° 0 mm 1 mps 681 mmHg 23%
09:00 +24°C° 0 mm 2 mps 682 mmHg 26%
10:00 +26°C° 0 mm 2 mps 682 mmHg 29%
11:00 +29°C° 0 mm 2 mps 682 mmHg 33%
12:00 +31°C° 0 mm 2 mps 681 mmHg 28%
13:00 +34°C° 0 mm 2 mps 681 mmHg 23%
14:00 +35°C° 0 mm 2 mps 680 mmHg 18%
15:00 +35°C° 0 mm 2 mps 680 mmHg 17%
16:00 +35°C° 0 mm 2 mps 679 mmHg 16%
17:00 +34°C° 0 mm 2 mps 679 mmHg 16%
18:00 +30°C° 0 mm 2 mps 679 mmHg 21%
19:00 +27°C° 0 mm 2 mps 679 mmHg 26%
20:00 +24°C° 0 mm 1 mps 679 mmHg 32%
21:00 +23°C° 0 mm 1 mps 679 mmHg 35%
22:00 +22°C° 0 mm 1 mps 679 mmHg 38%
23:00 +21°C° 0 mm 1 mps 679 mmHg 41%

30 September, Wednesday

Time Temperature Precipitation Wind Pressure Humidity
00:00 +20°C° 0.1 mm 1 mps 679 mmHg 42%
01:00 +19°C° 0.1 mm 1 mps 679 mmHg 42%
02:00 +18°C° 0.1 mm 1 mps 678 mmHg 43%
03:00 +17°C° 0 mm 2 mps 678 mmHg 55%
04:00 +17°C° 0 mm 3 mps 678 mmHg 67%
05:00 +17°C° 0 mm 4 mps 678 mmHg 80%
06:00 +17°C° 0 mm 5 mps 679 mmHg 77%
07:00 +20°C° 0 mm 6 mps 679 mmHg 75%
08:00 +21°C° 0 mm 8 mps 679 mmHg 72%
09:00 +22°C° 0 mm 8 mps 679 mmHg 66%
10:00 +24°C° 0 mm 8 mps 679 mmHg 59%
11:00 +26°C° 0 mm 8 mps 679 mmHg 52%
12:00 +28°C° 0 mm 8 mps 678 mmHg 45%
13:00 +32°C° 0 mm 8 mps 677 mmHg 38%
14:00 +34°C° 0 mm 8 mps 677 mmHg 30%
15:00 +32°C° 2.1 mm 6 mps 676 mmHg 40%
16:00 +29°C° 2.1 mm 5 mps 675 mmHg 50%
17:00 +26°C° 2.1 mm 3 mps 675 mmHg 59%
18:00 +25°C° 0.2 mm 4 mps 675 mmHg 60%
19:00 +23°C° 0.2 mm 6 mps 675 mmHg 61%
20:00 +22°C° 0.2 mm 7 mps 675 mmHg 62%
21:00 +22°C° 0 mm 7 mps 675 mmHg 63%
22:00 +22°C° 0 mm 7 mps 674 mmHg 64%
23:00 +22°C° 0 mm 7 mps 674 mmHg 65%

1 October, Thursday

Time Temperature Precipitation Wind Pressure Humidity
00:00 +22°C° 0.2 mm 5 mps 673 mmHg 68%
01:00 +21°C° 0.2 mm 4 mps 673 mmHg 71%
02:00 +20°C° 0.2 mm 2 mps 672 mmHg 75%
03:00 +20°C° 0.3 mm 3 mps 673 mmHg 65%
04:00 +20°C° 0.3 mm 5 mps 673 mmHg 56%
05:00 +19°C° 0.3 mm 6 mps 674 mmHg 47%
06:00 +17°C° 0 mm 6 mps 675 mmHg 40%
07:00 +16°C° 0 mm 7 mps 675 mmHg 33%
08:00 +15°C° 0 mm 7 mps 676 mmHg 27%
09:00 +17°C° 0 mm 7 mps 677 mmHg 25%
10:00 +19°C° 0 mm 6 mps 677 mmHg 22%
11:00 +20°C° 0 mm 6 mps 677 mmHg 20%
12:00 +22°C° 0 mm 7 mps 677 mmHg 16%
13:00 +23°C° 0 mm 7 mps 677 mmHg 13%
14:00 +24°C° 0 mm 8 mps 677 mmHg 9%
15:00 +23°C° 0 mm 8 mps 677 mmHg 10%
16:00 +22°C° 0 mm 8 mps 677 mmHg 10%
17:00 +20°C° 0 mm 8 mps 676 mmHg 10%
18:00 +18°C° 0 mm 7 mps 677 mmHg 11%
19:00 +17°C° 0 mm 6 mps 678 mmHg 12%
20:00 +15°C° 0 mm 5 mps 679 mmHg 14%
21:00 +14°C° 0 mm 4 mps 679 mmHg 16%
22:00 +13°C° 0 mm 4 mps 680 mmHg 18%
23:00 +12°C° 0 mm 4 mps 680 mmHg 21%

2 October, Friday

Time Temperature Precipitation Wind Pressure Humidity
00:00 +11°C° 0 mm 4 mps 680 mmHg 21%
01:00 +10°C° 0 mm 4 mps 680 mmHg 21%
02:00 +8°C° 0 mm 4 mps 680 mmHg 21%
03:00 +7°C° 0 mm 4 mps 681 mmHg 23%
04:00 +7°C° 0 mm 4 mps 681 mmHg 26%
05:00 +6°C° 0 mm 4 mps 681 mmHg 28%
06:00 +7°C° 0 mm 4 mps 682 mmHg 28%
07:00 +7°C° 0 mm 5 mps 683 mmHg 28%
08:00 +8°C° 0 mm 6 mps 684 mmHg 28%
09:00 +12°C° 0 mm 5 mps 684 mmHg 23%
10:00 +14°C° 0 mm 5 mps 684 mmHg 19%
11:00 +16°C° 0 mm 5 mps 684 mmHg 14%
12:00 +19°C° 0 mm 5 mps 684 mmHg 12%
13:00 +21°C° 0 mm 5 mps 684 mmHg 10%
14:00 +23°C° 0 mm 5 mps 684 mmHg 8%
15:00 +23°C° 0 mm 5 mps 683 mmHg 8%
16:00 +23°C° 0 mm 4 mps 683 mmHg 8%
17:00 +23°C° 0 mm 4 mps 683 mmHg 8%
18:00 +21°C° 0 mm 4 mps 683 mmHg 10%
19:00 +19°C° 0 mm 3 mps 683 mmHg 12%
20:00 +17°C° 0 mm 2 mps 683 mmHg 14%
21:00 +16°C° 0 mm 2 mps 683 mmHg 15%
22:00 +15°C° 0 mm 2 mps 684 mmHg 17%
23:00 +14°C° 0 mm 2 mps 684 mmHg 18%
Show more